This is the latest recevied weather packets stored in our database for station/object EA2MKR. If no packets are shown the sender has not sent any weather packets the latest 10 day(s).
| Time | Temp. | Humidity | Pressure | Rain* | Wind** | Luminosity | Snow |
|---|---|---|---|---|---|---|---|
| 1777543895 | 17.22° C | 74% | 953.7 hPa | 0 mm | - | - | - |
| 1777543594 | 16.67° C | 75% | 953.8 hPa | 0 mm | - | - | - |
| 1777543293 | 16.67° C | 74% | 953.7 hPa | 0 mm | - | - | - |
| 1777542992 | 16.67° C | 73% | 953.7 hPa | 0 mm | - | - | - |
| 1777542693 | 16.67° C | 75% | 953.8 hPa | 0 mm | - | - | - |
| 1777542392 | 16.11° C | 76% | 953.6 hPa | 0 mm | - | - | - |
| 1777542216 | 16.11° C | 79% | 953.8 hPa | 0 mm | - | - | - |
| 1777541792 | 16.11° C | 77% | 953.7 hPa | 0 mm | - | - | - |
| 1777541617 | 16.67° C | 79% | 953.7 hPa | 0 mm | - | - | - |
| 1777541192 | 16.11° C | 79% | 953.6 hPa | 0 mm | - | - | - |
| 1777540892 | 16.11° C | 78% | 953.6 hPa | 0 mm | - | - | - |
| 1777540716 | 16.11° C | 83% | 953.6 hPa | 0 mm | - | - | - |
| 1777540292 | 15.56° C | 84% | 953.6 hPa | 0 mm | - | - | - |
| 1777539991 | 15° C | 85% | 953.5 hPa | 0 mm | - | - | - |
| 1777539816 | 15° C | 85% | 953.5 hPa | 0 mm | - | - | - |
| 1777539391 | 15° C | 86% | 953.4 hPa | 0 mm | - | - | - |
| 1777539084 | 14.44° C | 86% | 953.4 hPa | 0 mm | - | - | - |
| 1777538784 | 14.44° C | 86% | 953.4 hPa | 0 mm | - | - | - |
| 1777538484 | 14.44° C | 85% | 953.4 hPa | 0 mm | - | - | - |
| 1777538183 | 14.44° C | 86% | 953.4 hPa | 0 mm | - | - | - |
| 1777537884 | 14.44° C | 86% | 953.3 hPa | 0 mm | - | - | - |
| 1777537583 | 15° C | 86% | 953.2 hPa | 0 mm | - | - | - |
| 1777537393 | 14.44° C | 86% | 953.2 hPa | 0 mm | - | - | - |
| 1777536984 | 14.44° C | 88% | 953.2 hPa | 0 mm | - | - | - |
| 1777536684 | 14.44° C | 88% | 953.2 hPa | 0 mm | - | - | - |
* Rain latest hour (hover to see other rain measurements)
** Current wind speed in m/s (hover to see current wind gust speed)